New Iberia, LA

9:12 PM CDT on May 29, 2017 (GMT -0500)
Acadiana Regional

Weather History for KARA - September, 2012

Change the Weather History Date:

Wednesday, September 5, 2012

  Actual Average Record
Temperature  
Mean Temperature 85 °F 81 °F  
Max Temperature 94 °F 91 °F 101 °F (2000)
Min Temperature 76 °F 72 °F 55 °F (1952)
Degree Days  
Heating Degree Days 0 0  
Month to date heating degree days 0 0  
Since 1 July heating degree days 0 0  
Cooling Degree Days 20 16  
Month to date cooling degree days 100 83  
Year to date cooling degree days 2641 2226  
Growing Degree Days 34 (Base 50)    
Moisture  
Dew Point 75 °F    
Average Humidity 72    
Maximum Humidity 94    
Minimum Humidity 49    
Precipitation  
Precipitation T in 0.15 in 6.03 in (1973)
Month to date precipitation 0.01 0.79  
Year to date precipitation 38.43 41.64  
Sea Level Pressure  
Sea Level Pressure 29.91 in    
Wind  
Wind Speed 6 mph (West)    
Max Wind Speed 15 mph    
Max Gust Speed 20 mph    
Visibility 9 miles    
Events Rain    
T = Trace of Precipitation, MM = Missing Value Source: NWS Daily Summary

Daily Weather History Graph

Daily Weather History Graph

Search for Another Location

Airport or City:

Trip Planner

Search our weather history database for the weather conditions in past years. The results will help you decide how hot, cold, wet, or windy it might be!

Date:

Astronomy

Sep. 05, 2012 Rise Set
Actual Time 6:46 AM CDT 7:24 PM CDT
Civil Twilight 6:22 AM CDT 7:48 PM CDT
Nautical Twilight 5:54 AM CDT 8:17 PM CDT
Astronomical Twilight 5:25 AM CDT 8:46 PM CDT
Moon 10:22 PM CDT (9/5) 11:24 AM CDT (9/5)
Length of Visible Light 13h 26m
Length of Day
12h 37m
Waning Gibbous, 76% of the Moon is Illuminated
Sep 5
Waning Gibbous
Sep 8
Last Quarter
Sep 15
New
Sep 22
First Quarter
Sep 29
Full

Hourly Weather History & Observations

Time (CDT) Temp. Heat Index Dew Point Humidity Pressure Visibility Wind Dir Wind Speed Gust Speed Precip Events Conditions
12:53 AM 78.1 °F - 75.0 °F 90% 29.91 in 10.0 mi SW 4.6 mph - N/A   Clear
1:53 AM 79.0 °F - 75.0 °F 88% 29.90 in 10.0 mi WSW 5.8 mph - N/A   Clear
2:53 AM 79.0 °F - 75.0 °F 88% 29.90 in 10.0 mi WSW 4.6 mph - N/A   Clear
3:53 AM 78.1 °F - 75.9 °F 93% 29.88 in 10.0 mi WSW 3.5 mph - N/A   Clear
4:53 AM 78.1 °F - 75.0 °F 90% 29.88 in 9.0 mi WSW 4.6 mph - N/A   Clear
5:53 AM 77.0 °F - 75.0 °F 94% 29.89 in 7.0 mi West 3.5 mph - N/A   Clear
6:53 AM 77.0 °F - 73.9 °F 90% 29.92 in 5.0 mi Calm Calm - N/A   Partly Cloudy
7:00 AM 77.0 °F - 73.4 °F 89% 29.93 in 1.5 mi Calm Calm - N/A   Partly Cloudy
7:13 AM 75.2 °F - 73.4 °F 94% 29.93 in 3.0 mi Calm Calm - N/A   Partly Cloudy
7:53 AM 79.0 °F - 75.9 °F 90% 29.93 in 7.0 mi West 3.5 mph - N/A   Partly Cloudy
8:51 AM 82.4 °F 90.9 °F 77.0 °F 84% 29.93 in 10.0 mi West 8.1 mph - N/A   Partly Cloudy
8:53 AM 82.0 °F 90.2 °F 77.0 °F 85% 29.93 in 10.0 mi West 6.9 mph - N/A   Partly Cloudy
9:53 AM 84.9 °F 95.3 °F 77.0 °F 77% 29.94 in 10.0 mi WNW 9.2 mph - N/A   Mostly Cloudy
10:07 AM 86.0 °F 96.9 °F 77.0 °F 74% 29.94 in 10.0 mi WNW 11.5 mph - N/A   Scattered Clouds
10:15 AM 86.0 °F 95.1 °F 75.2 °F 70% 29.95 in 10.0 mi West 9.2 mph - N/A   Mostly Cloudy
10:48 AM 87.8 °F 97.6 °F 75.2 °F 66% 29.95 in 10.0 mi West 10.4 mph - N/A   Scattered Clouds
10:53 AM 88.0 °F 98.5 °F 75.9 °F 67% 29.95 in 10.0 mi WNW 11.5 mph - N/A   Scattered Clouds
11:18 AM 87.8 °F 97.6 °F 75.2 °F 66% 29.95 in 10.0 mi West 10.4 mph - N/A   Mostly Cloudy
11:25 AM 89.6 °F 99.8 °F 75.2 °F 62% 29.95 in 10.0 mi WNW 9.2 mph - 0.00 in Rain Light Rain
11:53 AM 90.0 °F 100.2 °F 75.0 °F 61% 29.95 in 10.0 mi WNW 10.4 mph - 0.00 in   Scattered Clouds
12:53 PM 91.0 °F 101.6 °F 75.0 °F 59% 29.92 in 10.0 mi WNW 9.2 mph - N/A   Scattered Clouds
1:53 PM 91.9 °F 100.7 °F 73.0 °F 54% 29.91 in 10.0 mi WNW 9.2 mph - N/A   Partly Cloudy
2:53 PM 91.9 °F 98.4 °F 71.1 °F 50% 29.88 in 10.0 mi Variable 6.9 mph - N/A   Partly Cloudy
3:53 PM 93.0 °F 100.7 °F 72.0 °F 50% 29.87 in 10.0 mi West 8.1 mph - N/A   Clear
5:53 PM 91.9 °F 100.7 °F 73.0 °F 54% 29.86 in 10.0 mi West 5.8 mph - N/A   Clear
6:53 PM 88.0 °F 97.5 °F 75.0 °F 65% 29.85 in 10.0 mi WSW 4.6 mph - N/A   Clear
7:53 PM 84.0 °F 91.9 °F 75.0 °F 74% 29.86 in 10.0 mi SW 5.8 mph - N/A   Clear
8:53 PM 82.0 °F 88.6 °F 75.0 °F 79% 29.88 in 10.0 mi WSW 5.8 mph - N/A   Clear
9:53 PM 81.0 °F 86.7 °F 75.0 °F 82% 29.88 in 10.0 mi WSW 4.6 mph - N/A   Clear
10:53 PM 79.0 °F - 75.0 °F 88% 29.88 in 10.0 mi WSW 4.6 mph - N/A   Clear
11:53 PM 80.1 °F 85.4 °F 75.9 °F 87% 29.88 in 10.0 mi WNW 5.8 mph - N/A   Clear